,,Stat6,,Stat2,,Stat8,,Stat9,,Stat10,,Wind1,,Wind1,
time,status,PA1M_AVG,status,PR1M_SUM,status,RH1M_AVG,status,SR1M_AVG,status,TA1M_AVG,status,W1dAve1m,status,W1sAve1m,
2009-03-30, 00:00:01,VALID,916.444,VALID,0,VALID,100,VALID,-0.0509425,VALID,20.6547,VALID,58,VALID,0,
2009-03-30, 00:01:01,VALID,916.461,VALID,0,VALID,100,VALID,-0.0339617,VALID,20.6484,VALID,58,VALID,0,
2009-03-30, 00:02:00,VALID,916.457,VALID,0,VALID,100,VALID,-0.0849042,VALID,20.6479,VALID,58,VALID,0,
2009-03-30, 00:03:00,VALID,916.465,VALID,0,VALID,100,VALID,-0.0679233,VALID,20.6809,VALID,58,VALID,0,
2009-03-30, 00:04:01,VALID,916.468,VALID,0,VALID,100,VALID,-0.101885,VALID,20.6771,VALID,58,VALID,0,
2009-03-30, 00:05:00,VALID,916.466,VALID,0,VALID,100,VALID,-0.0509425,VALID,20.6582,VALID,58,VALID,0,
2009-03-30, 00:06:00,VALID,916.464,VALID,0,VALID,100,VALID,-0.0849042,VALID,20.6452,VALID,58,VALID,0,
2009-03-30, 00:07:00,VALID,916.466,VALID,0,VALID,100,VALID,-0.101885,VALID,20.6257,VALID,58,VALID,0,
2009-03-30, 00:08:01,VALID,916.454,VALID,0,VALID,100,VALID,-0.0849042,VALID,20.6127,VALID,58,VALID,0,
2009-03-30, 00:09:00,VALID,916.443,VALID,0,VALID,100,VALID,-0.0679233,VALID,20.616,VALID,61,VALID,0,
2009-03-30, 00:10:00,VALID,916.419,VALID,0,VALID,100,VALID,-0.101885,VALID,20.6157,VALID,91,VALID,0,
2009-03-30, 00:11:00,VALID,916.413,VALID,0,VALID,100,VALID,-0.0509425,VALID,20.616,VALID,125,VALID,0,
2009-03-30, 00:12:00,VALID,916.395,VALID,0,VALID,100,VALID,-0.101885,VALID,20.6025,VALID,125,VALID,0,
2009-03-30, 00:13:00,VALID,916.379,VALID,0,VALID,100,VALID,-0.0509425,VALID,20.606,VALID,125,VALID,0,
2009-03-30, 00:14:00,VALID,916.345,VALID,0,VALID,100,VALID,-0.0679233,VALID,20.6222,VALID,125,VALID,0,
2009-03-30, 00:15:00,VALID,916.325,VALID,0,VALID,100,VALID,-0.0339617,VALID,20.6319,VALID,125,VALID,0,
2009-03-30, 00:16:00,VALID,916.285,VALID,0,VALID,100,VALID,-0.0339617,VALID,20.6354,VALID,125,VALID,0,
2009-03-30, 00:17:01,VALID,916.277,VALID,0,VALID,100,VALID,-0.0679233,VALID,20.6352,VALID,125,VALID,0,
2009-03-30, 00:18:00,VALID,916.264,VALID,0,VALID,100,VALID,-0.101885,VALID,20.6417,VALID,125,VALID,0,
2009-03-30, 00:19:01,VALID,916.229,VALID,0,VALID,100,VALID,-0.0509425,VALID,20.6511,VALID,99,VALID,0,
2009-03-30, 00:20:01,VALID,916.209,VALID,0,VALID,100,VALID,-0.0339617,VALID,20.6606,VALID,82,VALID,0,
2009-03-30, 00:21:01,VALID,916.187,VALID,0,VALID,100,VALID,-0.0509425,VALID,20.6549,VALID,80,VALID,0,
2009-03-30, 00:22:00,VALID,916.15,VALID,0,VALID,100,VALID,-0.0679233,VALID,20.6449,VALID,79,VALID,0,
2009-03-30, 00:23:00,VALID,916.122,VALID,0,VALID,100,VALID,-0.0509425,VALID,20.6411,VALID,73,VALID,0,
2009-03-30, 00:24:01,VALID,916.094,VALID,0,VALID,100,VALID,-0.0339617,VALID,20.6349,VALID,73,VALID,0,
2009-03-30, 00:25:01,VALID,916.051,VALID,0,VALID,100,VALID,-0.0169808,VALID,20.6414,VALID,73,VALID,0,
2009-03-30, 00:26:00,VALID,916.025,VALID,0,VALID,100,VALID,-0.0679233,VALID,20.6382,VALID,73,VALID,0,
2009-03-30, 00:27:01,VALID,916.001,VALID,0,VALID,100,VALID,-0.0169808,VALID,20.6247,VALID,73,VALID,0,
2009-03-30, 00:28:01,VALID,915.99,VALID,0,VALID,100,VALID,-0.0169808,VALID,20.6276,VALID,73,VALID,0,
2009-03-30, 00:29:01,VALID,915.966,VALID,0,VALID,100,VALID,-0.0339617,VALID,20.6317,VALID,73,VALID,0,
2009-03-30, 00:30:01,VALID,915.959,VALID,0,VALID,100,VALID,-0.0509425,VALID,20.6284,VALID,73,VALID,0,
2009-03-30, 00:31:01,VALID,915.931,VALID,0,VALID,100,VALID,-0.0509425,VALID,20.6187,VALID,73,VALID,0,
2009-03-30, 00:32:01,VALID,915.903,VALID,0,VALID,100,VALID,-0.0679233,VALID,20.5997,VALID,73,VALID,0,
2009-03-30, 00:33:01,VALID,915.882,VALID,0,VALID,100,VALID,-0.0679233,VALID,20.58,VALID,73,VALID,0,
2009-03-30, 00:34:01,VALID,915.857,VALID,0,VALID,100,VALID,-0.0849042,VALID,20.5603,VALID,73,VALID,0,
2009-03-30, 00:35:00,VALID,915.813,VALID,0,VALID,100,VALID,-0.0339617,VALID,20.5797,VALID,73,VALID,0,
2009-03-30, 00:36:00,VALID,915.782,VALID,0,VALID,100,VALID,-0.0509425,VALID,20.5862,VALID,77,VALID,0,
2009-03-30, 00:37:00,VALID,915.767,VALID,0,VALID,100,VALID,-0.0339617,VALID,20.5803,VALID,77,VALID,0,
2009-03-30, 00:38:00,VALID,915.742,VALID,0,VALID,100,VALID,-0.0339617,VALID,20.5633,VALID,77,VALID,0,
2009-03-30, 00:39:00,VALID,915.723,VALID,0,VALID,100,VALID,-0.0339617,VALID,20.5665,VALID,121,VALID,0,
2009-03-30, 00:40:00,VALID,915.732,VALID,0,VALID,100,VALID,0,VALID,20.573,VALID,134,VALID,0,
2009-03-30, 00:41:00,VALID,915.721,VALID,0,VALID,100,VALID,0,VALID,20.5827,VALID,134,VALID,0,
2009-03-30, 00:42:00,VALID,915.707,VALID,0,VALID,100,VALID,-0.0339617,VALID,20.5895,VALID,134,VALID,0,
2009-03-30, 00:43:00,VALID,915.699,VALID,0,VALID,100,VALID,-0.0339617,VALID,20.5865,VALID,134,VALID,0,
2009-03-30, 00:44:00,VALID,915.685,VALID,0,VALID,100,VALID,-0.0679233,VALID,20.579,VALID,134,VALID,0,
2009-03-30, 00:45:00,VALID,915.665,VALID,0,VALID,100,VALID,-0.0169808,VALID,20.5992,VALID,134,VALID,0,
2009-03-30, 00:46:00,VALID,915.662,VALID,0,VALID,100,VALID,-0.0509425,VALID,20.606,VALID,134,VALID,0,
2009-03-30, 00:47:00,VALID,915.638,VALID,0,VALID,100,VALID,-0.0509425,VALID,20.6122,VALID,134,VALID,0,
2009-03-30, 00:48:00,VALID,915.641,VALID,0,VALID,100,VALID,0,VALID,20.6082,VALID,134,VALID,0,
2009-03-30, 00:49:00,VALID,915.633,VALID,0,VALID,100,VALID,-0.0169808,VALID,20.6182,VALID,134,VALID,0,
2009-03-30, 00:50:00,VALID,915.631,VALID,0,VALID,100,VALID,-0.0169808,VALID,20.6022,VALID,134,VALID,0,
2009-03-30, 00:51:00,VALID,915.625,VALID,0,VALID,100,VALID,-0.0339617,VALID,20.5827,VALID,134,VALID,0,
2009-03-30, 00:52:00,VALID,915.607,VALID,0,VALID,100,VALID,-0.0339617,VALID,20.5932,VALID,134,VALID,0,
2009-03-30, 00:53:00,VALID,915.581,VALID,0,VALID,100,VALID,-0.0169808,VALID,20.583,VALID,134,VALID,0,
2009-03-30, 00:54:00,VALID,915.55,VALID,0,VALID,100,VALID,-0.0509425,VALID,20.5895,VALID,134,VALID,0,
2009-03-30, 00:55:00,VALID,915.525,VALID,0,VALID,100,VALID,-0.0339617,VALID,20.5857,VALID,134,VALID,0,
2009-03-30, 00:56:00,VALID,915.495,VALID,0,VALID,100,VALID,-0.0509425,VALID,20.5795,VALID,134,VALID,0,
2009-03-30, 00:57:00,VALID,915.473,VALID,0,VALID,100,VALID,0,VALID,20.5692,VALID,134,VALID,0,
2009-03-30, 00:58:00,VALID,915.435,VALID,0,VALID,100,VALID,-0.0339617,VALID,20.5638,VALID,134,VALID,0,
2009-03-30, 00:59:00,VALID,915.433,VALID,0,VALID,100,VALID,-0.0509425,VALID,20.5535,VALID,130,VALID,0,
2009-03-30, 01:00:00,VALID,915.429,VALID,0,VALID,100,VALID,-0.0169808,VALID,20.5143,VALID,91,VALID,0,
2009-03-30, 01:01:00,VALID,915.417,VALID,0,VALID,100,VALID,-0.0509425,VALID,20.4989,VALID,80,VALID,0,
2009-03-30, 01:02:00,VALID,915.398,VALID,0,VALID,100,VALID,-0.0339617,VALID,20.4694,VALID,79,VALID,0,
2009-03-30, 01:03:00,VALID,915.396,VALID,0,VALID,100,VALID,-0.0169808,VALID,20.4205,VALID,48,VALID,0,
2009-03-30, 01:04:00,VALID,915.387,VALID,0,VALID,100,VALID,0,VALID,20.3558,VALID,48,VALID,0,
2009-03-30, 01:05:00,VALID,915.392,VALID,0,VALID,100,VALID,-0.0339617,VALID,20.3228,VALID,48,VALID,0,
2009-03-30, 01:06:00,VALID,915.372,VALID,0,VALID,100,VALID,-0.0339617,VALID,20.2904,VALID,44,VALID,0,
2009-03-30, 01:07:00,VALID,915.357,VALID,0,VALID,100,VALID,-0.0339617,VALID,20.2782,VALID,43,VALID,0,
2009-03-30, 01:08:00,VALID,915.344,VALID,0,VALID,100,VALID,-0.0169808,VALID,20.2714,VALID,21,VALID,0,
2009-03-30, 01:09:00,VALID,915.331,VALID,0,VALID,100,VALID,-0.0169808,VALID,20.2649,VALID,19,VALID,0,
2009-03-30, 01:10:00,VALID,915.305,VALID,0,VALID,100,VALID,0,VALID,20.2587,VALID,18,VALID,0,
2009-03-30, 01:11:00,VALID,915.272,VALID,0,VALID,100,VALID,-0.0169808,VALID,20.229,VALID,18,VALID,0,
2009-03-30, 01:12:00,VALID,915.239,VALID,0,VALID,100,VALID,0,VALID,20.2093,VALID,16,VALID,0,
2009-03-30, 01:13:00,VALID,915.216,VALID,0,VALID,100,VALID,0,VALID,20.2093,VALID,360,VALID,0,
2009-03-30, 01:14:00,VALID,915.201,VALID,0,VALID,100,VALID,-0.0509425,VALID,20.2163,VALID,360,VALID,0,
2009-03-30, 01:15:00,VALID,915.185,VALID,0,VALID,100,VALID,-0.0169808,VALID,20.2155,VALID,360,VALID,0,
2009-03-30, 01:16:00,VALID,915.182,VALID,0,VALID,100,VALID,0,VALID,20.2282,VALID,360,VALID,0,
2009-03-30, 01:17:00,VALID,915.178,VALID,0,VALID,100,VALID,0,VALID,20.2512,VALID,360,VALID,0,
2009-03-30, 01:18:00,VALID,915.168,VALID,0,VALID,100,VALID,0,VALID,20.2542,VALID,360,VALID,0,
2009-03-30, 01:19:00,VALID,915.175,VALID,0,VALID,100,VALID,-0.0169808,VALID,20.2612,VALID,360,VALID,0,
2009-03-30, 01:20:00,VALID,915.173,VALID,0,VALID,100,VALID,-0.0339617,VALID,20.2257,VALID,360,VALID,0,
2009-03-30, 01:21:00,VALID,915.173,VALID,0,VALID,100,VALID,-0.0339617,VALID,20.1833,VALID,360,VALID,0,
2009-03-30, 01:22:00,VALID,915.17,VALID,0,VALID,100,VALID,0.0169808,VALID,20.1573,VALID,21,VALID,0,
2009-03-30, 01:23:00,VALID,915.156,VALID,0,VALID,100,VALID,-0.0509425,VALID,20.1606,VALID,40,VALID,0,
2009-03-30, 01:24:00,VALID,915.14,VALID,0,VALID,100,VALID,0,VALID,20.1473,VALID,44,VALID,0,
2009-03-30, 01:25:00,VALID,915.099,VALID,0,VALID,100,VALID,-0.0509425,VALID,20.1311,VALID,49,VALID,0,
2009-03-30, 01:26:00,VALID,915.093,VALID,0,VALID,100,VALID,-0.0339617,VALID,20.1151,VALID,49,VALID,0,
2009-03-30, 01:27:00,VALID,915.085,VALID,0,VALID,100,VALID,-0.0169808,VALID,20.0859,VALID,60,VALID,0,
2009-03-30, 01:28:00,VALID,915.061,VALID,0,VALID,100,VALID,0,VALID,20.0492,VALID,68,VALID,0,
2009-03-30, 01:29:00,VALID,915.053,VALID,0,VALID,100,VALID,0,VALID,20.0465,VALID,72,VALID,0,
2009-03-30, 01:30:00,VALID,915.039,VALID,0,VALID,100,VALID,0,VALID,20.0497,VALID,72,VALID,0,
2009-03-30, 01:31:00,VALID,915.028,VALID,0,VALID,100,VALID,-0.0169808,VALID,20.0532,VALID,72,VALID,0,
2009-03-30, 01:32:00,VALID,915.005,VALID,0,VALID,100,VALID,-0.0679233,VALID,20.0632,VALID,74,VALID,0,
2009-03-30, 01:33:00,VALID,914.976,VALID,0,VALID,100,VALID,0,VALID,20.0989,VALID,80,VALID,0,
2009-03-30, 01:34:00,VALID,914.951,VALID,0,VALID,100,VALID,-0.0509425,VALID,20.1159,VALID,80,VALID,0,
2009-03-30, 01:35:00,VALID,914.931,VALID,0,VALID,100,VALID,0,VALID,20.1024,VALID,79,VALID,0,
2009-03-30, 01:36:00,VALID,914.903,VALID,0,VALID,100,VALID,-0.0339617,VALID,20.0667,VALID,66,VALID,0,
2009-03-30, 01:37:00,VALID,914.87,VALID,0,VALID,100,VALID,-0.0169808,VALID,20.0597,VALID,64,VALID,0,
2009-03-30, 01:38:00,VALID,914.831,VALID,0,VALID,100,VALID,-0.0339617,VALID,20.1057,VALID,64,VALID,0,
2009-03-30, 01:39:00,VALID,914.815,VALID,0,VALID,100,VALID,-0.0169808,VALID,20.0862,VALID,71,VALID,0,
2009-03-30, 01:40:00,VALID,914.788,VALID,0,VALID,100,VALID,-0.0339617,VALID,20.0537,VALID,81,VALID,0,
2009-03-30, 01:41:00,VALID,914.767,VALID,0,VALID,100,VALID,-0.0339617,VALID,20.021,VALID,88,VALID,0,
2009-03-30, 01:42:00,VALID,914.778,VALID,0,VALID,100,VALID,-0.0169808,VALID,19.9983,VALID,119,VALID,0,
2009-03-30, 01:43:00,VALID,914.793,VALID,0,VALID,100,VALID,-0.0509425,VALID,19.9686,VALID,125,VALID,0,
2009-03-30, 01:44:00,VALID,914.813,VALID,0,VALID,100,VALID,-0.0509425,VALID,19.9531,VALID,125,VALID,0,
2009-03-30, 01:45:00,VALID,914.816,VALID,0,VALID,100,VALID,-0.0679233,VALID,19.9439,VALID,125,VALID,0,
2009-03-30, 01:46:00,VALID,914.835,VALID,0,VALID,100,VALID,-0.0339617,VALID,19.9137,VALID,125,VALID,0,
2009-03-30, 01:47:00,VALID,914.832,VALID,0,VALID,100,VALID,-0.0509425,VALID,19.9075,VALID,125,VALID,0,
2009-03-30, 01:48:00,VALID,914.853,VALID,0,VALID,100,VALID,-0.0509425,VALID,19.8985,VALID,146,VALID,0,
2009-03-30, 01:49:00,VALID,914.849,VALID,0,VALID,100,VALID,-0.0509425,VALID,19.8815,VALID,166,VALID,0,
2009-03-30, 01:50:00,VALID,914.866,VALID,0,VALID,100,VALID,0,VALID,19.8753,VALID,169,VALID,0,
2009-03-30, 01:51:00,VALID,914.864,VALID,0,VALID,100,VALID,-0.0509425,VALID,19.8623,VALID,169,VALID,0,
2009-03-30, 01:52:00,VALID,914.856,VALID,0,VALID,100,VALID,-0.0849042,VALID,19.8521,VALID,156,VALID,0,
2009-03-30, 01:53:00,VALID,914.854,VALID,0,VALID,100,VALID,-0.0339617,VALID,19.859,VALID,156,VALID,0,
2009-03-30, 01:54:00,VALID,914.844,VALID,0,VALID,100,VALID,-0.0849042,VALID,19.8665,VALID,151,VALID,0,
2009-03-30, 01:55:00,VALID,914.828,VALID,0,VALID,100,VALID,-0.0849042,VALID,19.8658,VALID,153,VALID,0,
2009-03-30, 01:56:00,VALID,914.838,VALID,0,VALID,100,VALID,-0.0509425,VALID,19.8748,VALID,145,VALID,0,
2009-03-30, 01:57:00,VALID,914.846,VALID,0,VALID,100,VALID,-0.0679233,VALID,19.9012,VALID,144,VALID,0,
2009-03-30, 01:58:00,VALID,914.856,VALID,0,VALID,100,VALID,-0.0339617,VALID,19.914,VALID,139,VALID,0,
2009-03-30, 01:59:00,VALID,914.849,VALID,0,VALID,100,VALID,-0.0509425,VALID,19.9342,VALID,131,VALID,0,
2009-03-30, 02:00:00,VALID,914.838,VALID,0,VALID,100,VALID,-0.0339617,VALID,19.9234,VALID,131,VALID,0,
2009-03-30, 02:01:00,VALID,914.828,VALID,0,VALID,100,VALID,-0.0509425,VALID,19.9167,VALID,131,VALID,0,
2009-03-30, 02:02:00,VALID,914.832,VALID,0,VALID,100,VALID,-0.0509425,VALID,19.9234,VALID,131,VALID,0,
2009-03-30, 02:03:00,VALID,914.833,VALID,0,VALID,100,VALID,-0.0339617,VALID,19.9137,VALID,131,VALID,0,
2009-03-30, 02:04:00,VALID,914.85,VALID,0,VALID,100,VALID,-0.0849042,VALID,19.8975,VALID,131,VALID,0,
2009-03-30, 02:05:00,VALID,914.848,VALID,0,VALID,100,VALID,0,VALID,19.868,VALID,131,VALID,0,
2009-03-30, 02:06:00,VALID,914.868,VALID,0,VALID,100,VALID,-0.0169808,VALID,19.8393,VALID,131,VALID,0,
2009-03-30, 02:07:00,VALID,914.879,VALID,0,VALID,100,VALID,-0.0679233,VALID,19.7974,VALID,131,VALID,0,
2009-03-30, 02:08:00,VALID,914.884,VALID,0,VALID,100,VALID,-0.0169808,VALID,19.7345,VALID,116,VALID,0,
2009-03-30, 02:09:00,VALID,914.917,VALID,0,VALID,100,VALID,0.0169808,VALID,19.6888,VALID,75,VALID,0,
2009-03-30, 02:10:00,VALID,914.922,VALID,0,VALID,100,VALID,0.0679233,VALID,19.6726,VALID,54,VALID,0,
2009-03-30, 02:11:00,VALID,914.952,VALID,0,VALID,100,VALID,0.0679233,VALID,19.6981,VALID,50,VALID,0,
2009-03-30, 02:12:00,VALID,914.966,VALID,0,VALID,100,VALID,0.0849042,VALID,19.6918,VALID,30,VALID,0.00106534,
2009-03-30, 02:13:00,VALID,914.964,VALID,0,VALID,100,VALID,0.0679233,VALID,19.7308,VALID,34,VALID,0,
2009-03-30, 02:14:00,VALID,914.968,VALID,0,VALID,100,VALID,0.0679233,VALID,19.7694,VALID,35,VALID,0,
2009-03-30, 02:15:00,VALID,914.972,VALID,0,VALID,100,VALID,0.0849042,VALID,19.7919,VALID,36,VALID,0,
2009-03-30, 02:16:00,VALID,914.972,VALID,0,VALID,100,VALID,0.0849042,VALID,19.7919,VALID,36,VALID,0,
2009-03-30, 02:17:00,VALID,914.962,VALID,0,VALID,100,VALID,0.0849042,VALID,19.7824,VALID,36,VALID,0,
2009-03-30, 02:18:00,VALID,914.944,VALID,0,VALID,100,VALID,0.0849042,VALID,19.7532,VALID,36,VALID,0,
2009-03-30, 02:19:00,VALID,914.936,VALID,0,VALID,100,VALID,0.0509425,VALID,19.7532,VALID,38,VALID,0,
2009-03-30, 02:20:00,VALID,914.921,VALID,0,VALID,100,VALID,0.0849042,VALID,19.7542,VALID,139,VALID,0,
2009-03-30, 02:21:00,VALID,914.93,VALID,0,VALID,100,VALID,0.101885,VALID,19.7308,VALID,162,VALID,0,
2009-03-30, 02:22:00,VALID,914.922,VALID,0,VALID,100,VALID,0.0849042,VALID,19.711,VALID,163,VALID,0.00651042,
2009-03-30, 02:23:00,VALID,914.919,VALID,0,VALID,100,VALID,0.0339617,VALID,19.7053,VALID,162,VALID,0.0500372,
2009-03-30, 02:24:00,VALID,914.92,VALID,0,VALID,100,VALID,-0.0509425,VALID,19.7318,VALID,162,VALID,0,
2009-03-30, 02:25:00,VALID,914.917,VALID,0,VALID,100,VALID,-0.0509425,VALID,19.7904,VALID,173,VALID,0,
2009-03-30, 02:26:00,VALID,914.916,VALID,0,VALID,100,VALID,-0.0339617,VALID,19.8553,VALID,163,VALID,0.00111607,
2009-03-30, 02:27:00,VALID,914.903,VALID,0,VALID,100,VALID,-0.0339617,VALID,19.8813,VALID,158,VALID,0,
2009-03-30, 02:28:00,VALID,914.895,VALID,0,VALID,100,VALID,-0.0339617,VALID,19.9007,VALID,157,VALID,0,
2009-03-30, 02:29:00,VALID,914.887,VALID,0,VALID,100,VALID,0,VALID,19.9037,VALID,157,VALID,0,
2009-03-30, 02:30:00,VALID,914.863,VALID,0,VALID,100,VALID,-0.0169808,VALID,19.9072,VALID,157,VALID,0,
2009-03-30, 02:31:00,VALID,914.841,VALID,0,VALID,100,VALID,-0.0679233,VALID,19.917,VALID,157,VALID,0,
2009-03-30, 02:32:00,VALID,914.831,VALID,0,VALID,100,VALID,-0.0339617,VALID,19.9037,VALID,157,VALID,0,
2009-03-30, 02:33:00,VALID,914.798,VALID,0,VALID,100,VALID,-0.0169808,VALID,19.8942,VALID,157,VALID,0,
2009-03-30, 02:34:00,VALID,914.789,VALID,0,VALID,100,VALID,-0.0509425,VALID,19.878,VALID,148,VALID,0,
2009-03-30, 02:35:00,VALID,914.775,VALID,0,VALID,100,VALID,-0.0509425,VALID,19.8882,VALID,145,VALID,0,
2009-03-30, 02:36:00,VALID,914.77,VALID,0,VALID,100,VALID,-0.0509425,VALID,19.8688,VALID,145,VALID,0,
2009-03-30, 02:37:00,VALID,914.758,VALID,0,VALID,100,VALID,-0.0849042,VALID,19.8658,VALID,145,VALID,0,
2009-03-30, 02:38:00,VALID,914.746,VALID,0,VALID,100,VALID,-0.0339617,VALID,19.875,VALID,145,VALID,0,
2009-03-30, 02:39:00,VALID,914.722,VALID,0,VALID,100,VALID,-0.0339617,VALID,19.885,VALID,155,VALID,0.0368823,
2009-03-30, 02:40:00,VALID,914.716,VALID,0,VALID,100,VALID,-0.0339617,VALID,19.881,VALID,164,VALID,0,
2009-03-30, 02:41:00,VALID,914.691,VALID,0,VALID,100,VALID,0,VALID,19.8583,VALID,165,VALID,0,
2009-03-30, 02:42:00,VALID,914.679,VALID,0,VALID,100,VALID,0,VALID,19.8388,VALID,169,VALID,0.00117188,
2009-03-30, 02:43:00,VALID,914.648,VALID,0,VALID,100,VALID,-0.0169808,VALID,19.8323,VALID,169,VALID,0,
2009-03-30, 02:44:00,VALID,914.613,VALID,0,VALID,100,VALID,0,VALID,19.8291,VALID,169,VALID,0,
2009-03-30, 02:45:00,VALID,914.592,VALID,0,VALID,100,VALID,0.0169808,VALID,19.8488,VALID,169,VALID,0,
2009-03-30, 02:46:00,VALID,914.564,VALID,0,VALID,100,VALID,-0.0339617,VALID,19.8423,VALID,169,VALID,0,
2009-03-30, 02:47:00,VALID,914.552,VALID,0,VALID,100,VALID,-0.0169808,VALID,19.8293,VALID,169,VALID,0,
2009-03-30, 02:48:00,VALID,914.526,VALID,0,VALID,100,VALID,0,VALID,19.8129,VALID,164,VALID,0,
2009-03-30, 02:49:00,VALID,914.52,VALID,0,VALID,100,VALID,-0.0169808,VALID,19.8161,VALID,155,VALID,0,
2009-03-30, 02:50:00,VALID,914.506,VALID,0,VALID,100,VALID,-0.0169808,VALID,19.8064,VALID,151,VALID,0,
2009-03-30, 02:51:00,VALID,914.491,VALID,0,VALID,100,VALID,-0.0169808,VALID,19.7869,VALID,142,VALID,0,
2009-03-30, 02:52:00,VALID,914.485,VALID,0,VALID,100,VALID,-0.0169808,VALID,19.7747,VALID,131,VALID,0,
2009-03-30, 02:53:00,VALID,914.474,VALID,0,VALID,100,VALID,0,VALID,19.758,VALID,131,VALID,0,
2009-03-30, 02:54:00,VALID,914.469,VALID,0,VALID,100,VALID,-0.0169808,VALID,19.7352,VALID,136,VALID,0,
2009-03-30, 02:55:00,VALID,914.47,VALID,0,VALID,100,VALID,-0.0169808,VALID,19.7382,VALID,134,VALID,0,
2009-03-30, 02:56:00,VALID,914.489,VALID,0,VALID,100,VALID,-0.0169808,VALID,19.7582,VALID,133,VALID,0,
2009-03-30, 02:57:00,VALID,914.499,VALID,0,VALID,100,VALID,0.0169808,VALID,19.6961,VALID,127,VALID,0,
2009-03-30, 02:58:00,VALID,914.521,VALID,0,VALID,100,VALID,-0.0339617,VALID,19.6217,VALID,125,VALID,0,
2009-03-30, 02:59:00,VALID,914.553,VALID,0,VALID,100,VALID,0,VALID,19.5306,VALID,125,VALID,0,
2009-03-30, 03:00:00,VALID,914.571,VALID,0,VALID,100,VALID,-0.0509425,VALID,19.4984,VALID,115,VALID,0,
2009-03-30, 03:01:00,VALID,914.594,VALID,0,VALID,100,VALID,-0.0169808,VALID,19.4947,VALID,74,VALID,0,
2009-03-30, 03:02:00,VALID,914.616,VALID,0,VALID,100,VALID,0,VALID,19.5211,VALID,69,VALID,0,
2009-03-30, 03:03:00,VALID,914.62,VALID,0,VALID,100,VALID,-0.0339617,VALID,19.5565,VALID,69,VALID,0,
2009-03-30, 03:04:00,VALID,914.648,VALID,0,VALID,100,VALID,-0.0509425,VALID,19.5673,VALID,69,VALID,0,
2009-03-30, 03:05:00,VALID,914.661,VALID,0,VALID,100,VALID,-0.0169808,VALID,19.5533,VALID,69,VALID,0,
2009-03-30, 03:06:00,VALID,914.668,VALID,0,VALID,100,VALID,0,VALID,19.586,VALID,74,VALID,0,
2009-03-30, 03:07:00,VALID,914.695,VALID,0,VALID,100,VALID,-0.0509425,VALID,19.602,VALID,78,VALID,0,
2009-03-30, 03:08:00,VALID,914.717,VALID,0,VALID,100,VALID,-0.0679233,VALID,19.5828,VALID,77,VALID,0,
2009-03-30, 03:09:00,VALID,914.731,VALID,0,VALID,100,VALID,0,VALID,19.5795,VALID,69,VALID,0,
2009-03-30, 03:10:00,VALID,914.75,VALID,0,VALID,100,VALID,-0.0679233,VALID,19.5957,VALID,79,VALID,0,
2009-03-30, 03:11:00,VALID,914.757,VALID,0,VALID,100,VALID,-0.0169808,VALID,19.6052,VALID,82,VALID,0,
2009-03-30, 03:12:00,VALID,914.76,VALID,0,VALID,100,VALID,-0.0339617,VALID,19.602,VALID,98,VALID,0,
2009-03-30, 03:13:00,VALID,914.745,VALID,0,VALID,100,VALID,-0.0339617,VALID,19.5955,VALID,101,VALID,0,
2009-03-30, 03:14:00,VALID,914.707,VALID,0,VALID,100,VALID,-0.0169808,VALID,19.6087,VALID,108,VALID,0,
2009-03-30, 03:15:00,VALID,914.66,VALID,0,VALID,100,VALID,-0.0169808,VALID,19.6287,VALID,127,VALID,0,
2009-03-30, 03:16:00,VALID,914.626,VALID,0,VALID,100,VALID,-0.0169808,VALID,19.6352,VALID,135,VALID,0,
2009-03-30, 03:17:00,VALID,914.599,VALID,0,VALID,100,VALID,0,VALID,19.6412,VALID,150,VALID,0,
2009-03-30, 03:18:00,VALID,914.567,VALID,0,VALID,100,VALID,-0.0339617,VALID,19.6449,VALID,150,VALID,0,
2009-03-30, 03:19:00,VALID,914.548,VALID,0,VALID,100,VALID,-0.0339617,VALID,19.6516,VALID,150,VALID,0,
2009-03-30, 03:20:00,VALID,914.552,VALID,0,VALID,100,VALID,-0.0169808,VALID,19.6671,VALID,150,VALID,0,
2009-03-30, 03:21:00,VALID,914.548,VALID,0,VALID,100,VALID,-0.0169808,VALID,19.6766,VALID,131,VALID,0,
2009-03-30, 03:22:00,VALID,914.548,VALID,0,VALID,100,VALID,-0.0509425,VALID,19.6801,VALID,123,VALID,0,
2009-03-30, 03:23:00,VALID,914.545,VALID,0,VALID,100,VALID,-0.0169808,VALID,19.6836,VALID,120,VALID,0,
2009-03-30, 03:24:00,VALID,914.54,VALID,0,VALID,100,VALID,-0.0509425,VALID,19.6768,VALID,120,VALID,0,
2009-03-30, 03:25:00,VALID,914.549,VALID,0,VALID,100,VALID,-0.0169808,VALID,19.6701,VALID,120,VALID,0,
2009-03-30, 03:26:00,VALID,914.54,VALID,0,VALID,100,VALID,-0.0339617,VALID,19.7095,VALID,120,VALID,0,
2009-03-30, 03:27:00,VALID,914.565,VALID,0,VALID,100,VALID,0,VALID,19.7255,VALID,120,VALID,0,
2009-03-30, 03:28:00,VALID,914.584,VALID,0,VALID,100,VALID,-0.0169808,VALID,19.7355,VALID,120,VALID,0,
2009-03-30, 03:29:00,VALID,914.608,VALID,0,VALID,100,VALID,-0.0169808,VALID,19.7512,VALID,104,VALID,0,
2009-03-30, 03:30:00,VALID,914.641,VALID,0,VALID,100,VALID,-0.0169808,VALID,19.7617,VALID,22,VALID,0,
2009-03-30, 03:31:00,VALID,914.659,VALID,0,VALID,100,VALID,-0.0339617,VALID,19.758,VALID,14,VALID,0,
2009-03-30, 03:32:00,VALID,914.658,VALID,0,VALID,100,VALID,-0.0339617,VALID,19.7612,VALID,14,VALID,0,
2009-03-30, 03:33:00,VALID,914.671,VALID,0,VALID,100,VALID,-0.0679233,VALID,19.7515,VALID,14,VALID,0,
2009-03-30, 03:34:00,VALID,914.653,VALID,0,VALID,100,VALID,-0.0339617,VALID,19.7515,VALID,14,VALID,0,
2009-03-30, 03:35:00,VALID,914.652,VALID,0,VALID,100,VALID,-0.0509425,VALID,19.7677,VALID,14,VALID,0,
2009-03-30, 03:36:00,VALID,914.643,VALID,0,VALID,100,VALID,-0.0509425,VALID,19.7847,VALID,14,VALID,0,
2009-03-30, 03:37:00,VALID,914.631,VALID,0,VALID,100,VALID,-0.0169808,VALID,19.7837,VALID,14,VALID,0,
2009-03-30, 03:38:00,VALID,914.655,VALID,0,VALID,100,VALID,-0.0169808,VALID,19.7902,VALID,14,VALID,0,
2009-03-30, 03:39:00,VALID,914.679,VALID,0,VALID,100,VALID,-0.0339617,VALID,19.7966,VALID,14,VALID,0,
2009-03-30, 03:40:00,VALID,914.688,VALID,0,VALID,100,VALID,-0.0339617,VALID,19.8001,VALID,20,VALID,0,
2009-03-30, 03:41:00,VALID,914.686,VALID,0,VALID,100,VALID,-0.0169808,VALID,19.761,VALID,28,VALID,0,
2009-03-30, 03:42:00,VALID,914.688,VALID,0,VALID,100,VALID,-0.0169808,VALID,19.709,VALID,28,VALID,0,
2009-03-30, 03:43:00,VALID,914.685,VALID,0,VALID,100,VALID,-0.0169808,VALID,19.6801,VALID,45,VALID,0,
2009-03-30, 03:44:00,VALID,914.701,VALID,0,VALID,100,VALID,-0.0169808,VALID,19.6439,VALID,120,VALID,0,
2009-03-30, 03:45:00,VALID,914.704,VALID,0,VALID,100,VALID,-0.0169808,VALID,19.6184,VALID,133,VALID,0,
2009-03-30, 03:46:00,VALID,914.72,VALID,0,VALID,100,VALID,-0.0169808,VALID,19.5922,VALID,148,VALID,0,
2009-03-30, 03:47:00,VALID,914.725,VALID,0,VALID,100,VALID,-0.0509425,VALID,19.5992,VALID,151,VALID,0,
2009-03-30, 03:48:00,VALID,914.744,VALID,0,VALID,100,VALID,-0.0509425,VALID,19.609,VALID,155,VALID,0,
2009-03-30, 03:49:00,VALID,914.763,VALID,0,VALID,100,VALID,0,VALID,19.6312,VALID,162,VALID,0.0809659,
2009-03-30, 03:50:00,VALID,914.797,VALID,0,VALID,100,VALID,0,VALID,19.6669,VALID,152,VALID,0.0226935,
2009-03-30, 03:51:00,VALID,914.811,VALID,0,VALID,100,VALID,-0.0169808,VALID,19.6956,VALID,132,VALID,0.0293899,